SKY116 RJBE-RJTT

Flight info

Callsign SKY116
Flight time 0h 57m
Altitude 21000
Route MUKRI LANID REVUE HYOGO SANDA Y289 SHTLE Y71 XAC
Aircraft B738/M-SDE3FGILORVW/LB1

Departure

Time 2026-05-05 12:29
Airport Kobe Airport (RJBE)

Arrival

Time 2026-05-05 13:26
Airport Tokyo Haneda International Airport (RJTT)
Time Latitude Longitude Altitude Speed Heading
2026-05-05 11:56 34.63619 135.23013 33 ft 0 kts 354°
2026-05-05 12:19 34.63618 135.23014 34 ft 1 kts 354°
2026-05-05 12:20 34.63602 135.23016 33 ft 3 kts 354°
2026-05-05 12:20 34.63583 135.23018 33 ft 3 kts 354°
2026-05-05 12:20 34.63565 135.23023 33 ft 3 kts 322°
2026-05-05 12:20 34.63554 135.23039 33 ft 3 kts 280°
2026-05-05 12:21 34.63553 135.23062 34 ft 2 kts 265°
2026-05-05 12:21 34.63554 135.23075 34 ft 1 kts 265°
2026-05-05 12:21 34.63555 135.23077 34 ft 0 kts 265°
2026-05-05 12:24 34.63553 135.23072 34 ft 2 kts 255°
2026-05-05 12:25 34.63534 135.23055 31 ft 5 kts 192°
2026-05-05 12:25 34.63501 135.23075 34 ft 6 kts 124°
2026-05-05 12:25 34.63495 135.23125 34 ft 7 kts 86°
2026-05-05 12:25 34.63500 135.23187 34 ft 8 kts 84°
2026-05-05 12:26 34.63506 135.23265 34 ft 11 kts 84°
2026-05-05 12:26 34.63514 135.23369 34 ft 14 kts 84°
2026-05-05 12:26 34.63524 135.23500 34 ft 16 kts 84°
2026-05-05 12:26 34.63534 135.23632 34 ft 14 kts 85°
2026-05-05 12:27 34.63491 135.23714 34 ft 12 kts 163°
2026-05-05 12:27 34.63419 135.23724 32 ft 1 kts 174°
2026-05-05 12:27 34.63405 135.23725 32 ft 3 kts 177°
2026-05-05 12:27 34.63380 135.23711 31 ft 5 kts 231°
2026-05-05 12:28 34.63372 135.23670 31 ft 0 kts 264°
2026-05-05 12:29 34.63357 135.23482 30 ft 57 kts 264°
2026-05-05 12:29 34.63297 135.22725 35 ft 121 kts 264°
2026-05-05 12:29 34.63214 135.21517 182 ft 157 kts 264°
2026-05-05 12:29 34.63095 135.20182 771 ft 163 kts 254°
2026-05-05 12:30 34.62493 135.19002 1392 ft 165 kts 229°
2026-05-05 12:30 34.61800 135.17988 2253 ft 156 kts 227°
2026-05-05 12:30 34.61111 135.16938 2868 ft 160 kts 229°
2026-05-05 12:30 34.60420 135.15843 3420 ft 171 kts 230°
2026-05-05 12:31 34.59645 135.14588 3667 ft 199 kts 231°
2026-05-05 12:31 34.58775 135.13154 3853 ft 223 kts 232°
2026-05-05 12:31 34.57813 135.11551 4035 ft 248 kts 232°
2026-05-05 12:31 34.56882 135.09711 4505 ft 263 kts 245°
2026-05-05 12:32 34.56225 135.07614 5199 ft 268 kts 248°
2026-05-05 12:32 34.55799 135.05462 5918 ft 267 kts 268°
2026-05-05 12:32 34.55881 135.03186 6651 ft 272 kts 270°
2026-05-05 12:32 34.55972 135.00880 7373 ft 275 kts 270°
2026-05-05 12:33 34.56052 134.98535 8073 ft 281 kts 269°
2026-05-05 12:33 34.56159 134.96160 8862 ft 285 kts 275°
2026-05-05 12:33 34.56914 134.93909 9613 ft 298 kts 304°
2026-05-05 12:33 34.58515 134.92276 10322 ft 312 kts 332°
2026-05-05 12:34 34.60697 134.91651 10549 ft 339 kts
2026-05-05 12:34 34.63053 134.92158 10821 ft 358 kts 15°
2026-05-05 12:34 34.65476 134.93019 11368 ft 367 kts 17°
2026-05-05 12:34 34.67930 134.93905 12117 ft 369 kts 16°
2026-05-05 12:35 34.70406 134.94755 12920 ft 371 kts 15°
2026-05-05 12:35 34.72909 134.95570 13723 ft 374 kts 14°
2026-05-05 12:35 34.75440 134.96361 14446 ft 378 kts 13°
2026-05-05 12:35 34.78001 134.97147 15162 ft 382 kts 13°
2026-05-05 12:36 34.80588 134.97939 15903 ft 385 kts 13°
2026-05-05 12:36 34.83145 134.98966 16605 ft 391 kts 27°
2026-05-05 12:36 34.85253 135.00999 17286 ft 396 kts 50°
2026-05-05 12:36 34.86713 135.03838 17977 ft 399 kts 70°
2026-05-05 12:37 34.87474 135.07091 18642 ft 402 kts 78°
2026-05-05 12:37 34.88105 135.10433 19183 ft 408 kts 79°
2026-05-05 12:37 34.88727 135.13826 19699 ft 414 kts 79°
2026-05-05 12:37 34.89370 135.17270 20233 ft 420 kts 78°
2026-05-05 12:38 34.90037 135.20759 20780 ft 425 kts 78°
2026-05-05 12:38 34.90724 135.24287 21203 ft 431 kts 78°
2026-05-05 12:38 34.91427 135.27871 21204 ft 438 kts 78°
2026-05-05 12:38 34.92135 135.31478 21207 ft 437 kts 78°
2026-05-05 12:39 34.92775 135.35034 21200 ft 435 kts 83°
2026-05-05 12:39 34.93009 135.38694 21213 ft 432 kts 94°
2026-05-05 12:39 34.92828 135.42343 21215 ft 431 kts 97°
2026-05-05 12:39 34.92591 135.45985 21205 ft 431 kts 97°
2026-05-05 12:40 34.92348 135.49632 21204 ft 432 kts 97°
2026-05-05 12:40 34.92111 135.53285 21210 ft 433 kts 97°
2026-05-05 12:40 34.91886 135.56897 21206 ft 433 kts 97°
2026-05-05 12:40 34.91664 135.60561 21214 ft 434 kts 96°
2026-05-05 12:41 34.91447 135.64226 21208 ft 434 kts 96°
2026-05-05 12:41 34.91232 135.67888 21201 ft 433 kts 96°
2026-05-05 12:41 34.91017 135.71535 21216 ft 432 kts 96°
2026-05-05 12:41 34.90802 135.75179 21218 ft 431 kts 96°
2026-05-05 12:42 34.90586 135.78817 21221 ft 431 kts 96°
2026-05-05 12:42 34.90367 135.82464 21207 ft 431 kts 96°
2026-05-05 12:42 34.90151 135.86062 21214 ft 432 kts 96°
2026-05-05 12:42 34.89930 135.89713 21226 ft 432 kts 96°
2026-05-05 12:43 34.89708 135.93364 21229 ft 433 kts 96°
2026-05-05 12:43 34.89484 135.97025 21226 ft 434 kts 96°
2026-05-05 12:43 34.89260 136.00686 21226 ft 434 kts 96°
2026-05-05 12:43 34.89034 136.04345 21235 ft 433 kts 96°
2026-05-05 12:44 34.88807 136.08003 21230 ft 433 kts 97°
2026-05-05 12:44 34.88579 136.11660 21227 ft 433 kts 97°
2026-05-05 12:44 34.88355 136.15266 21225 ft 433 kts 97°
2026-05-05 12:44 34.88125 136.18917 21228 ft 432 kts 97°
2026-05-05 12:45 34.87893 136.22570 21228 ft 432 kts 97°
2026-05-05 12:45 34.87661 136.26209 21235 ft 433 kts 97°
2026-05-05 12:45 34.87427 136.29863 21241 ft 433 kts 97°
2026-05-05 12:45 34.87192 136.33515 21237 ft 433 kts 97°
2026-05-05 12:46 34.86956 136.37171 21236 ft 433 kts 97°
2026-05-05 12:46 34.86720 136.40830 21237 ft 433 kts 97°
2026-05-05 12:46 34.86483 136.44481 21235 ft 433 kts 97°
2026-05-05 12:46 34.86247 136.48087 21235 ft 433 kts 97°
2026-05-05 12:47 34.86008 136.51732 21240 ft 432 kts 97°
2026-05-05 12:47 34.85767 136.55383 21230 ft 433 kts 97°
2026-05-05 12:47 34.85525 136.59037 21242 ft 433 kts 97°
2026-05-05 12:47 34.85283 136.62683 21244 ft 433 kts 97°
2026-05-05 12:48 34.85038 136.66344 21239 ft 433 kts 97°
2026-05-05 12:48 34.84793 136.69999 21239 ft 434 kts 97°
2026-05-05 12:48 34.84549 136.73611 21240 ft 434 kts 97°
2026-05-05 12:48 34.84302 136.77264 21239 ft 434 kts 97°
2026-05-05 12:49 34.84053 136.80919 21241 ft 433 kts 97°
2026-05-05 12:49 34.83804 136.84574 21239 ft 433 kts 97°
2026-05-05 12:49 34.83554 136.88224 21239 ft 433 kts 97°
2026-05-05 12:49 34.83302 136.91878 21230 ft 433 kts 97°
2026-05-05 12:50 34.83047 136.95533 21237 ft 433 kts 98°
2026-05-05 12:50 34.82712 136.99174 21243 ft 433 kts 99°
2026-05-05 12:50 34.82305 137.02802 21248 ft 433 kts 101°
2026-05-05 12:50 34.81880 137.06380 21245 ft 433 kts 101°
2026-05-05 12:51 34.81449 137.10002 21250 ft 433 kts 101°
2026-05-05 12:51 34.81024 137.13630 21250 ft 433 kts 100°
2026-05-05 12:51 34.80606 137.17262 21246 ft 433 kts 100°
2026-05-05 12:51 34.80194 137.20890 21244 ft 433 kts 100°
2026-05-05 12:52 34.79785 137.24516 21238 ft 433 kts 100°
2026-05-05 12:52 34.79375 137.28154 21240 ft 434 kts 100°
2026-05-05 12:52 34.79104 137.30559 21250 ft 435 kts 100°
2026-05-05 12:52 34.78550 137.35445 21256 ft 436 kts 100°
2026-05-05 12:53 34.78141 137.39049 21258 ft 437 kts 100°
2026-05-05 12:53 34.77724 137.42708 21259 ft 437 kts 100°
2026-05-05 12:53 34.77305 137.46374 21256 ft 437 kts 100°
2026-05-05 12:53 34.76886 137.50039 21257 ft 437 kts 100°
2026-05-05 12:54 34.76044 137.57352 21257 ft 436 kts 100°
2026-05-05 12:54 34.75623 137.61002 21260 ft 435 kts 100°
2026-05-05 12:54 34.75202 137.64643 21267 ft 434 kts 100°
2026-05-05 12:55 34.74786 137.68226 21266 ft 434 kts 100°
2026-05-05 12:55 34.74401 137.71860 21263 ft 434 kts 99°
2026-05-05 12:55 34.74054 137.75498 21270 ft 433 kts 99°
2026-05-05 12:55 34.73716 137.79142 21262 ft 433 kts 99°
2026-05-05 12:56 34.73376 137.82779 21278 ft 433 kts 99°
2026-05-05 12:56 34.73031 137.86407 21277 ft 433 kts 99°
2026-05-05 12:56 34.72680 137.90043 21272 ft 433 kts 99°
2026-05-05 12:56 34.72326 137.93673 21270 ft 433 kts 99°
2026-05-05 12:57 34.71974 137.97263 21256 ft 434 kts 99°
2026-05-05 12:57 34.71616 138.00906 21265 ft 435 kts 99°
2026-05-05 12:57 34.71325 138.04562 21266 ft 436 kts 94°
2026-05-05 12:57 34.71279 138.08255 21271 ft 437 kts 91°
2026-05-05 12:58 34.71319 138.11956 21275 ft 438 kts 90°
2026-05-05 12:58 34.71381 138.15655 21271 ft 438 kts 90°
2026-05-05 12:58 34.71437 138.19353 21267 ft 438 kts 91°
2026-05-05 12:58 34.71479 138.23006 21263 ft 437 kts 91°
2026-05-05 12:59 34.71508 138.26697 21279 ft 437 kts 91°
2026-05-05 12:59 34.71528 138.30380 21276 ft 436 kts 91°
2026-05-05 12:59 34.71541 138.34060 21271 ft 435 kts 91°
2026-05-05 13:00 34.71561 138.41418 21274 ft 436 kts 91°
2026-05-05 13:00 34.71570 138.45102 21288 ft 436 kts 91°
2026-05-05 13:01 34.71589 138.56137 21286 ft 438 kts 91°
2026-05-05 13:01 34.71593 138.59840 21285 ft 438 kts 91°
2026-05-05 13:01 34.71597 138.63542 21284 ft 438 kts 91°
2026-05-05 13:01 34.71600 138.67240 21279 ft 437 kts 91°
2026-05-05 13:02 34.71601 138.70931 21279 ft 436 kts 91°
2026-05-05 13:02 34.71602 138.74609 21292 ft 435 kts 91°
2026-05-05 13:02 34.71602 138.78282 21294 ft 434 kts 91°
2026-05-05 13:02 34.71598 138.81950 21293 ft 434 kts 92°
2026-05-05 13:03 34.71583 138.85568 21292 ft 434 kts 92°
2026-05-05 13:03 34.71562 138.89234 21285 ft 434 kts 92°
2026-05-05 13:03 34.71541 138.92903 21276 ft 435 kts 92°
2026-05-05 13:03 34.71521 138.96583 21296 ft 436 kts 92°
2026-05-05 13:04 34.71506 138.99025 21290 ft 435 kts 92°
2026-05-05 13:04 34.71499 139.03841 21264 ft 418 kts 89°
2026-05-05 13:04 34.71706 139.06159 21266 ft 416 kts 79°
2026-05-05 13:04 34.72848 139.10594 21257 ft 405 kts 65°
2026-05-05 13:05 34.74054 139.13608 20966 ft 399 kts 63°
2026-05-05 13:05 34.75286 139.16617 20612 ft 396 kts 63°
2026-05-05 13:05 34.76502 139.19599 20214 ft 392 kts 64°
2026-05-05 13:05 34.77705 139.22569 19788 ft 390 kts 64°
2026-05-05 13:06 34.78889 139.25520 19367 ft 387 kts 64°
2026-05-05 13:06 34.80059 139.28453 18940 ft 384 kts 65°
2026-05-05 13:06 34.80829 139.30389 18655 ft 382 kts 65°
2026-05-05 13:06 34.82366 139.34265 18020 ft 378 kts 65°
2026-05-05 13:07 34.83120 139.36170 17719 ft 376 kts 65°
2026-05-05 13:07 34.84612 139.39945 17132 ft 371 kts 65°
2026-05-05 13:07 34.85723 139.42757 16715 ft 367 kts 65°
2026-05-05 13:07 34.86823 139.45545 16287 ft 364 kts 65°
2026-05-05 13:08 34.87915 139.48313 15871 ft 361 kts 66°
2026-05-05 13:08 34.88632 139.50131 15600 ft 359 kts 66°
2026-05-05 13:08 34.89707 139.52863 15187 ft 356 kts 65°
2026-05-05 13:08 34.90774 139.55574 14774 ft 354 kts 66°
2026-05-05 13:09 34.92174 139.59136 14232 ft 351 kts 66°
2026-05-05 13:09 34.92879 139.60930 14115 ft 344 kts 66°
2026-05-05 13:09 34.93895 139.63519 13941 ft 334 kts 66°
2026-05-05 13:09 34.94925 139.65973 13759 ft 327 kts 58°
2026-05-05 13:10 34.96377 139.68116 13511 ft 332 kts 48°
2026-05-05 13:10 34.98004 139.70207 13274 ft 347 kts 47°
2026-05-05 13:10 34.99688 139.72339 13016 ft 350 kts 47°
2026-05-05 13:10 35.01372 139.74482 12762 ft 350 kts 47°
2026-05-05 13:11 35.03041 139.76627 12509 ft 347 kts 47°
2026-05-05 13:11 35.05228 139.79463 12164 ft 345 kts 47°
2026-05-05 13:11 35.06335 139.80909 12003 ft 344 kts 47°
2026-05-05 13:11 35.07966 139.83045 11757 ft 343 kts 48°
2026-05-05 13:12 35.09567 139.85149 11524 ft 343 kts 48°
2026-05-05 13:12 35.11187 139.87281 11279 ft 342 kts 48°
2026-05-05 13:12 35.12804 139.89411 11039 ft 342 kts 48°
2026-05-05 13:12 35.14419 139.91541 10798 ft 341 kts 48°
2026-05-05 13:13 35.16031 139.93668 10555 ft 341 kts 47°
2026-05-05 13:13 35.17636 139.95787 10327 ft 340 kts 47°
2026-05-05 13:13 35.19234 139.97899 10244 ft 334 kts 47°
2026-05-05 13:13 35.20850 139.99836 10257 ft 319 kts 34°
2026-05-05 13:14 35.22739 140.01111 10288 ft 303 kts 26°
2026-05-05 13:14 35.24562 140.02233 10179 ft 294 kts 26°
2026-05-05 13:14 35.26375 140.03351 10052 ft 290 kts 26°
2026-05-05 13:14 35.28172 140.04467 9914 ft 289 kts 26°
2026-05-05 13:15 35.29959 140.05587 9793 ft 288 kts 27°
2026-05-05 13:15 35.31739 140.06711 9671 ft 287 kts 27°
2026-05-05 13:15 35.33511 140.07834 9546 ft 287 kts 27°
2026-05-05 13:15 35.35279 140.08958 9418 ft 286 kts 27°
2026-05-05 13:16 35.37043 140.10081 9290 ft 286 kts 27°
2026-05-05 13:16 35.38804 140.11205 9161 ft 285 kts 27°
2026-05-05 13:16 35.40536 140.12311 9030 ft 285 kts 27°
2026-05-05 13:16 35.42295 140.13436 8752 ft 284 kts 27°
2026-05-05 13:17 35.44042 140.14553 8479 ft 282 kts 27°
2026-05-05 13:17 35.45778 140.15664 8194 ft 281 kts 27°
2026-05-05 13:17 35.47508 140.16772 7919 ft 280 kts 27°
2026-05-05 13:17 35.49230 140.17874 7642 ft 279 kts 27°
2026-05-05 13:18 35.50948 140.18975 7355 ft 278 kts 27°
2026-05-05 13:18 35.52698 140.19957 7066 ft 276 kts 13°
2026-05-05 13:18 35.54567 140.19984 6744 ft 274 kts 347°
2026-05-05 13:18 35.56407 140.19400 6392 ft 274 kts 342°
2026-05-05 13:19 35.58163 140.18532 6010 ft 272 kts 322°
2026-05-05 13:19 35.59403 140.16901 5819 ft 254 kts 302°
2026-05-05 13:19 35.60216 140.15016 5607 ft 246 kts 281°
2026-05-05 13:19 35.60317 140.12968 5445 ft 237 kts 268°
2026-05-05 13:20 35.60343 140.10957 5258 ft 233 kts 269°
2026-05-05 13:20 35.60367 140.09008 5120 ft 223 kts 268°
2026-05-05 13:20 35.60378 140.07151 4842 ft 218 kts 267°
2026-05-05 13:20 35.60382 140.05309 4541 ft 212 kts 266°
2026-05-05 13:21 35.60384 140.03542 4261 ft 202 kts 266°
2026-05-05 13:21 35.60385 140.01853 3997 ft 193 kts 265°
2026-05-05 13:21 35.60385 140.00222 3769 ft 188 kts 265°
2026-05-05 13:21 35.60384 139.98646 3554 ft 182 kts 265°
2026-05-05 13:22 35.60384 139.97109 3305 ft 178 kts 264°
2026-05-05 13:22 35.60384 139.95603 3060 ft 174 kts 263°
2026-05-05 13:22 35.60384 139.94130 2828 ft 171 kts 263°
2026-05-05 13:22 35.60384 139.92706 2610 ft 167 kts 262°
2026-05-05 13:23 35.60383 139.91288 2386 ft 165 kts 262°
2026-05-05 13:23 35.60383 139.89894 2163 ft 162 kts 262°
2026-05-05 13:23 35.60383 139.88521 1952 ft 158 kts 262°
2026-05-05 13:23 35.60383 139.87168 1777 ft 158 kts 262°
2026-05-05 13:24 35.60383 139.85884 1573 ft 145 kts 262°
2026-05-05 13:24 35.60382 139.84655 1378 ft 143 kts 262°
2026-05-05 13:24 35.60382 139.83430 1198 ft 145 kts 263°
2026-05-05 13:24 35.60392 139.82179 998 ft 146 kts 263°
2026-05-05 13:25 35.60181 139.81028 813 ft 136 kts 237°
2026-05-05 13:25 35.59579 139.80130 713 ft 139 kts 216°
2026-05-05 13:25 35.58775 139.79441 568 ft 142 kts 212°
2026-05-05 13:25 35.57958 139.78747 383 ft 143 kts 213°
2026-05-05 13:26 35.57152 139.78055 208 ft 140 kts 212°
2026-05-05 13:26 35.56373 139.77387 39 ft 131 kts 214°
2026-05-05 13:26 35.55756 139.76862 29 ft 78 kts 215°
2026-05-05 13:26 35.55486 139.76629 28 ft 17 kts 215°
2026-05-05 13:27 35.55449 139.76597 29 ft 9 kts 214°
2026-05-05 13:27 35.55363 139.76529 25 ft 17 kts 206°
2026-05-05 13:27 35.55253 139.76478 24 ft 17 kts 195°
2026-05-05 13:27 35.55146 139.76453 26 ft 13 kts 190°
2026-05-05 13:28 35.55072 139.76491 25 ft 11 kts 117°
2026-05-05 13:28 35.55087 139.76576 25 ft 11 kts 58°
2026-05-05 13:28 35.55125 139.76656 27 ft 12 kts 60°
2026-05-05 13:28 35.55169 139.76748 23 ft 13 kts 60°
2026-05-05 13:29 35.55216 139.76848 21 ft 15 kts 60°
2026-05-05 13:29 35.55270 139.76962 22 ft 16 kts 60°
2026-05-05 13:29 35.55320 139.77072 21 ft 14 kts 72°
2026-05-05 13:29 35.55275 139.77165 22 ft 14 kts 149°
2026-05-05 13:30 35.55195 139.77222 21 ft 13 kts 150°
2026-05-05 13:30 35.55145 139.77303 18 ft 11 kts 84°
2026-05-05 13:30 35.55167 139.77360 18 ft 2 kts 59°
2026-05-05 13:30 35.55171 139.77369 18 ft 2 kts 60°
2026-05-05 13:31 35.55190 139.77409 20 ft 8 kts 60°
2026-05-05 13:31 35.55222 139.77477 21 ft 11 kts 59°
2026-05-05 13:31 35.55271 139.77581 21 ft 15 kts 60°
2026-05-05 13:31 35.55319 139.77683 21 ft 13 kts 60°
2026-05-05 13:32 35.55308 139.77776 21 ft 12 kts 138°
2026-05-05 13:32 35.55237 139.77830 21 ft 12 kts 150°
2026-05-05 13:32 35.55169 139.77878 23 ft 10 kts 150°
2026-05-05 13:32 35.55117 139.77927 23 ft 9 kts 110°
2026-05-05 13:33 35.55125 139.77989 24 ft 6 kts 74°
2026-05-05 13:33 35.55129 139.78007 22 ft 2 kts 75°
2026-05-05 13:33 35.55131 139.78015 23 ft 0 kts 75°